Regional Weather Roundup
Issued by NWS

Home | Current Version | Previous Version | Text Only | Print | Product List | Glossary Off
Versions: 1 2 3 4 5 6 7 8 9 10 11 12 13 14 15 16 17 18 19 20 21 22 23 24 25 26 27 28 29 30 31 32 33 34 35 36 37 38 39 40 41 42 43 44 45 46 47 48 49 50

000
ASUS43 KOAX 210610
RWRNE

WEATHER ROUNDUP FOR NEBRASKA
NATIONAL WEATHER SERVICE OMAHA NE
100 AM CDT SAT OCT 21 2017

NOTES: SATELLITE DATA IS BEING USED TO AUGMENT CLOUD COVER ABOVE
       12000 FEET.
       "FAIR" INDICATES FEW OR NO CLOUDS BELOW 12,000 FEET WITH NO
       SIGNIFICANT WEATHER AND/OR OBSTRUCTIONS TO VISIBILITY.


NEZ001>004-019>022-054>056-210700-
NEBRASKA PANHANDLE

CITY           SKY/WX    TMP DP  RH WIND       PRES   REMARKS
SCOTTSBLUFF    LGT RAIN  58  36  43 W18G24    29.57R
6HR MIN TEMP:  52; 6HR MAX TEMP:  71; 6HR PCP: TRACE;

ALLIANCE       PTCLDY    60  38  43 W13       29.51R
6HR MIN TEMP:  50; 6HR MAX TEMP:  65;

CHADRON        CLOUDY    64  31  28 W20G29    29.51R
6HR MIN TEMP:  64; 6HR MAX TEMP:  75; 6HR PCP: TRACE;

GORDON         MOCLDY    65  37  34 NW17      29.47F
6HR MIN TEMP:  55; 6HR MAX TEMP:  68;

KIMBALL        CLEAR     50  35  55 NW24G38   29.58R
SIDNEY         CLOUDY    56  36  47 NW17G26   29.52R
6HR MIN TEMP:  49; 6HR MAX TEMP:  67;

$$

NEZ057>060-069>072-079>082-210700-
SOUTHWEST NEBRASKA

CITY           SKY/WX    TMP DP  RH WIND       PRES   REMARKS
NORTH PLATTE   CLEAR     64  57  78 SE10      29.46F
6HR MIN TEMP:  64; 6HR MAX TEMP:  73;

IMPERIAL       CLEAR     60  49  66 S14       29.44F
6HR MIN TEMP:  59; 6HR MAX TEMP:  70;

LEXINGTON      CLEAR     65  58  75 S17G24    29.50F
MCCOOK         CLEAR     67  57  70 S20G37    29.46F
6HR MIN TEMP:  67; 6HR MAX TEMP:  74;

OGALLALA       CLOUDY    60  52  75 CALM      29.44F
$$

NEZ005>010-023>029-035>040-094-210700-
NORTH CENTRAL NEBRASKA

CITY           SKY/WX    TMP DP  RH WIND       PRES   REMARKS
VALENTINE      CLEAR     65  54  67 S17G23    29.42F
6HR MIN TEMP:  58; 6HR MAX TEMP:  70;

AINSWORTH      CLEAR     63  56  80 S17G23    29.45F
BROKEN BOW     CLEAR     64  57  78 S14       29.49F
6HR MIN TEMP:  64; 6HR MAX TEMP:  73;

O`NEILL        CLEAR     65  59  80 S17G26    29.50F
ORD            CLEAR     65  58  78 S15G23    29.51F
6HR MIN TEMP:  65; 6HR MAX TEMP:  72;

THEDFORD       CLEAR     63  56  78 S17       29.46F
$$

NEZ041-046>049-061>064-073>077-083>087-210700-
SOUTH CENTRAL NEBRASKA

CITY           SKY/WX    TMP DP  RH WIND       PRES   REMARKS
GRAND ISLAND   CLEAR     66  59  78 S23G38    29.56F
6HR MIN TEMP:  66; 6HR MAX TEMP:  74;

AURORA         CLOUDY    67  57  70 S20G28    29.58F
HASTINGS       PTCLDY    67  58  72 S16G26    29.58F
6HR MIN TEMP:  67; 6HR MAX TEMP:  72;

HEBRON         CLOUDY    70  61  71 S23G31    29.63S
HOLDREGE       CLEAR     66  59  79 S20G31    29.53S
YORK           CLOUDY    66  59  77 S21G29    29.60F
$$

NEZ011>018-030>034-042>045-210700-
NORTHEAST NEBRASKA

CITY           SKY/WX    TMP DP  RH WIND       PRES   REMARKS
NORFOLK        CLOUDY    66  57  72 S25G31    29.57F
6HR MIN TEMP:  66; 6HR MAX TEMP:  72;

ALBION         CLOUDY    68  58  69 S22G30    29.56F
BLAIR          PTCLDY    66  58  73 S16G24    29.67F
COLUMBUS       CLOUDY    66  58  75 S17G25    29.60F
FREMONT        CLOUDY    66  57  72 SE21      29.64F
TEKAMAH        MOCLDY    67  57  70 S16G24    29.65F
6HR MIN TEMP:  67; 6HR MAX TEMP:  73;

WAYNE          CLOUDY    66  59  77 S20G30    29.58F
$$

NEZ050>053-065>068-078-088>093-210700-
SOUTHEAST NEBRASKA

CITY           SKY/WX    TMP DP  RH WIND       PRES   REMARKS
LINCOLN        CLOUDY    69  59  70 S24G33    29.64F
6HR MIN TEMP:  67; 6HR MAX TEMP:  73;

OMAHA EPPLEY   PTCLDY    67  56  67 S23       29.69F
6HR MIN TEMP:  67; 6HR MAX TEMP:  73;

BEATRICE       CLOUDY    70  60  72 S17G35    29.66F
FALLS CITY     CLOUDY    67  57  70 S21G30    29.74F
6HR MIN TEMP:  66; 6HR MAX TEMP:  71;

NEBRASKA CITY  LGT RAIN  65  61  85 S16       29.72F
PLATTSMOUTH    CLOUDY    66  58  75 SE18G24   29.70F
$$

NEZ044-045-051>053-067-210700-
OMAHA AREA

CITY           SKY/WX    TMP DP  RH WIND       PRES   REMARKS
OMAHA EPPLEY   PTCLDY    67  56  67 S23       29.69F
6HR MIN TEMP:  67; 6HR MAX TEMP:  73;

BLAIR          PTCLDY    66  58  73 S16G24    29.67F
FREMONT        CLOUDY    66  57  72 SE21      29.64F
MILLARD        CLOUDY    68  59  72 SE17G23   29.67F
OFFUTT AFB     CLOUDY    66  56  70 SE14      29.69F
PLATTSMOUTH    CLOUDY    66  58  75 SE18G24   29.70F
WAHOO          CLOUDY    67  58  72 S17G26    29.65F
$$




USA.gov is the U.S. government's official web portal to all federal, state and local government web resources and services.